N1PR KNFL-KNFG

Flight info

Callsign N1PR
Flight time 1h 20m
Altitude 35000
Route YERIN8 YERIN LANDO LEGOZ4
Aircraft B738/M-SDE2E3FGHIRWXY/LB1

Departure

Time 2026-04-26 01:02
Airport Fallon Naval Air Station (KNFL)

Arrival

Time 2026-04-26 02:23
Airport Camp Pendleton MCAS (Munn Field) Airport (KNFG)
Time Latitude Longitude Altitude Speed Heading
2026-04-26 00:41 39.40955 -118.70419 3933 ft 0 kts 222°
2026-04-26 00:55 39.40950 -118.70426 3933 ft 6 kts 222°
2026-04-26 00:55 39.40910 -118.70384 3933 ft 13 kts 79°
2026-04-26 00:56 39.40933 -118.70230 3933 ft 18 kts 78°
2026-04-26 00:56 39.40962 -118.70071 3933 ft 17 kts 65°
2026-04-26 00:56 39.40984 -118.70015 3933 ft 0 kts 62°
2026-04-26 00:56 39.40993 -118.69991 3933 ft 11 kts 62°
2026-04-26 00:57 39.41081 -118.69813 3933 ft 17 kts 52°
2026-04-26 00:57 39.41155 -118.69677 3933 ft 19 kts 54°
2026-04-26 00:57 39.41216 -118.69561 3933 ft 12 kts 64°
2026-04-26 00:57 39.41233 -118.69453 3933 ft 12 kts 86°
2026-04-26 00:58 39.41237 -118.69383 3933 ft 11 kts 88°
2026-04-26 00:58 39.41241 -118.69246 3933 ft 10 kts 79°
2026-04-26 00:58 39.41254 -118.69206 3933 ft 0 kts 52°
2026-04-26 00:59 39.41256 -118.69205 3933 ft 0 kts 51°
2026-04-26 00:59 39.41262 -118.69196 3933 ft 6 kts 43°
2026-04-26 01:00 39.41320 -118.69148 3933 ft 9 kts 25°
2026-04-26 01:00 39.41375 -118.69135 3933 ft 6 kts 303°
2026-04-26 01:00 39.41378 -118.69150 3933 ft 0 kts 274°
2026-04-26 01:00 39.41377 -118.69260 3933 ft 43 kts 268°
2026-04-26 01:01 39.41361 -118.69819 3933 ft 108 kts 267°
2026-04-26 01:01 39.41326 -118.71091 3941 ft 172 kts 269°
2026-04-26 01:02 39.41302 -118.72674 4529 ft 180 kts 271°
2026-04-26 01:02 39.41237 -118.74255 5324 ft 183 kts 253°
2026-04-26 01:02 39.40813 -118.75276 5485 ft 211 kts 230°
2026-04-26 01:02 39.38924 -118.76440 6283 ft 237 kts 181°
2026-04-26 01:03 39.37417 -118.75985 7418 ft 227 kts 159°
2026-04-26 01:03 39.35907 -118.75224 8053 ft 241 kts 164°
2026-04-26 01:03 39.34253 -118.75231 8855 ft 240 kts 199°
2026-04-26 01:03 39.32706 -118.75990 9488 ft 255 kts 204°
2026-04-26 01:04 39.30941 -118.76945 9836 ft 286 kts 204°
2026-04-26 01:04 39.29237 -118.77886 11560 ft 259 kts 204°
2026-04-26 01:04 39.28125 -118.78507 12014 ft 272 kts 204°
2026-04-26 01:04 39.25594 -118.79940 12198 ft 321 kts 206°
2026-04-26 01:05 39.23635 -118.81129 13588 ft 311 kts 205°
2026-04-26 01:05 39.21697 -118.82280 14679 ft 313 kts 205°
2026-04-26 01:05 39.19678 -118.83468 15322 ft 328 kts 204°
2026-04-26 01:05 39.18314 -118.84270 16079 ft 326 kts 204°
2026-04-26 01:06 39.15572 -118.85875 17438 ft 328 kts 204°
2026-04-26 01:06 39.13480 -118.87099 18193 ft 336 kts 203°
2026-04-26 01:06 39.11396 -118.88319 19262 ft 332 kts 203°
2026-04-26 01:06 39.09304 -118.89541 20216 ft 333 kts 204°
2026-04-26 01:07 39.07866 -118.90382 20220 ft 353 kts 204°
2026-04-26 01:07 39.04743 -118.92208 20269 ft 390 kts 203°
2026-04-26 01:07 39.02209 -118.93687 20617 ft 407 kts 203°
2026-04-26 01:07 38.99672 -118.95162 21975 ft 397 kts 202°
2026-04-26 01:08 38.97008 -118.96053 22732 ft 401 kts 185°
2026-04-26 01:08 38.94201 -118.95901 23216 ft 410 kts 174°
2026-04-26 01:08 38.91379 -118.95596 24352 ft 405 kts 176°
2026-04-26 01:08 38.88560 -118.95316 24912 ft 414 kts 176°
2026-04-26 01:09 38.85654 -118.95040 25422 ft 422 kts 176°
2026-04-26 01:09 38.82777 -118.94773 26439 ft 417 kts 177°
2026-04-26 01:09 38.79849 -118.94504 26843 ft 428 kts 177°
2026-04-26 01:09 38.76862 -118.94229 27505 ft 431 kts 178°
2026-04-26 01:10 38.73890 -118.93958 28314 ft 431 kts 178°
2026-04-26 01:10 38.70860 -118.93686 28721 ft 440 kts 178°
2026-04-26 01:10 38.67821 -118.93407 29407 ft 442 kts 178°
2026-04-26 01:10 38.64768 -118.93128 30025 ft 445 kts 178°
2026-04-26 01:11 38.61650 -118.92849 30439 ft 451 kts 178°
2026-04-26 01:11 38.58509 -118.92561 31040 ft 453 kts 178°
2026-04-26 01:11 38.56406 -118.92371 31492 ft 452 kts 178°
2026-04-26 01:11 38.52286 -118.91996 32597 ft 444 kts 179°
2026-04-26 01:12 38.49215 -118.91718 33747 ft 431 kts 179°
2026-04-26 01:12 38.46240 -118.91449 34353 ft 431 kts 179°
2026-04-26 01:12 38.43256 -118.91180 34674 ft 432 kts 179°
2026-04-26 01:12 38.41289 -118.91003 34776 ft 427 kts 179°
2026-04-26 01:13 38.34334 -118.90377 34824 ft 433 kts 179°
2026-04-26 01:13 38.28322 -118.89836 34810 ft 434 kts 179°
2026-04-26 01:14 38.22315 -118.89295 34807 ft 433 kts 179°
2026-04-26 01:14 38.17310 -118.88847 34806 ft 435 kts 178°
2026-04-26 01:15 38.11277 -118.88306 34810 ft 434 kts 178°
2026-04-26 01:15 38.04256 -118.87678 34812 ft 434 kts 178°
2026-04-26 01:16 37.98207 -118.87137 34816 ft 435 kts 178°
2026-04-26 01:16 37.92184 -118.86598 34810 ft 435 kts 178°
2026-04-26 01:17 37.86158 -118.86063 34821 ft 433 kts 179°
2026-04-26 01:17 37.80120 -118.85524 34833 ft 434 kts 178°
2026-04-26 01:18 37.74106 -118.84993 34835 ft 434 kts 178°
2026-04-26 01:18 37.68095 -118.84457 34845 ft 434 kts 179°
2026-04-26 01:19 37.62079 -118.83926 34851 ft 432 kts 179°
2026-04-26 01:19 37.56109 -118.83400 34862 ft 433 kts 179°
2026-04-26 01:20 37.50086 -118.82868 34848 ft 433 kts 178°
2026-04-26 01:20 37.45061 -118.82424 34836 ft 433 kts 178°
2026-04-26 01:21 37.38065 -118.81811 34822 ft 432 kts 179°
2026-04-26 01:21 37.32073 -118.81285 34819 ft 433 kts 179°
2026-04-26 01:22 37.26060 -118.80757 34823 ft 433 kts 179°
2026-04-26 01:22 37.20056 -118.80232 34814 ft 432 kts 179°
2026-04-26 01:23 37.14075 -118.79710 34814 ft 431 kts 179°
2026-04-26 01:23 37.08121 -118.79192 34822 ft 431 kts 179°
2026-04-26 01:24 37.02136 -118.78670 34829 ft 431 kts 179°
2026-04-26 01:24 36.96141 -118.78150 34827 ft 431 kts 178°
2026-04-26 01:25 36.91139 -118.77715 34834 ft 431 kts 179°
2026-04-26 01:25 36.84175 -118.77111 34828 ft 432 kts 179°
2026-04-26 01:26 36.78160 -118.76591 34833 ft 431 kts 179°
2026-04-26 01:26 36.72153 -118.76072 34838 ft 433 kts 179°
2026-04-26 01:27 36.66208 -118.75559 34831 ft 431 kts 179°
2026-04-26 01:27 36.60207 -118.75043 34854 ft 432 kts 179°
2026-04-26 01:28 36.54184 -118.74526 34862 ft 432 kts 179°
2026-04-26 01:28 36.48239 -118.74013 34878 ft 432 kts 179°
2026-04-26 01:29 36.42232 -118.73499 34857 ft 431 kts 179°
2026-04-26 01:29 36.37248 -118.73074 34855 ft 431 kts 179°
2026-04-26 01:30 36.30266 -118.72475 34857 ft 433 kts 179°
2026-04-26 01:30 36.24264 -118.71963 34853 ft 432 kts 179°
2026-04-26 01:31 36.18255 -118.71452 34843 ft 432 kts 179°
2026-04-26 01:31 36.12243 -118.70940 34840 ft 433 kts 179°
2026-04-26 01:32 36.06234 -118.70430 34847 ft 433 kts 179°
2026-04-26 01:32 36.00248 -118.69923 34841 ft 433 kts 179°
2026-04-26 01:33 35.94246 -118.69411 34846 ft 434 kts 179°
2026-04-26 01:33 35.91237 -118.69162 34481 ft 439 kts 179°
2026-04-26 01:33 35.88167 -118.68903 34049 ft 438 kts 179°
2026-04-26 01:34 35.85178 -118.68650 33599 ft 434 kts 179°
2026-04-26 01:34 35.83151 -118.68479 33274 ft 432 kts 179°
2026-04-26 01:34 35.79160 -118.68141 32641 ft 432 kts 179°
2026-04-26 01:34 35.76163 -118.67893 32179 ft 435 kts 179°
2026-04-26 01:35 35.73166 -118.67638 31707 ft 434 kts 179°
2026-04-26 01:35 35.70128 -118.67379 31231 ft 435 kts 179°
2026-04-26 01:35 35.68145 -118.67211 30943 ft 435 kts 179°
2026-04-26 01:35 35.64128 -118.66876 30861 ft 432 kts 179°
2026-04-26 01:36 35.58087 -118.66370 30845 ft 436 kts 179°
2026-04-26 01:37 35.49059 -118.65612 30850 ft 435 kts 179°
2026-04-26 01:37 35.42999 -118.65108 30850 ft 436 kts 180°
2026-04-26 01:38 35.36952 -118.64605 30843 ft 435 kts 180°
2026-04-26 01:38 35.30890 -118.64096 30845 ft 436 kts 180°
2026-04-26 01:39 35.24873 -118.63596 30857 ft 435 kts 180°
2026-04-26 01:39 35.18838 -118.63095 30862 ft 436 kts 180°
2026-04-26 01:40 35.13779 -118.62673 30853 ft 435 kts 180°
2026-04-26 01:40 35.06771 -118.62094 30855 ft 435 kts 180°
2026-04-26 01:41 35.00711 -118.61601 30850 ft 434 kts 182°
2026-04-26 01:41 34.94686 -118.60558 30850 ft 438 kts 176°
2026-04-26 01:42 34.88674 -118.59473 30844 ft 438 kts 177°
2026-04-26 01:42 34.82624 -118.58424 30853 ft 438 kts 177°
2026-04-26 01:43 34.76586 -118.57383 30860 ft 437 kts 177°
2026-04-26 01:43 34.70565 -118.56349 30863 ft 438 kts 177°
2026-04-26 01:44 34.64541 -118.55314 30871 ft 436 kts 177°
2026-04-26 01:44 34.58572 -118.54295 30887 ft 436 kts 177°
2026-04-26 01:45 34.52534 -118.53256 30896 ft 437 kts 178°
2026-04-26 01:45 34.46534 -118.52231 30907 ft 437 kts 178°
2026-04-26 01:45 34.43498 -118.51714 30787 ft 437 kts 178°
2026-04-26 01:46 34.40492 -118.51202 30314 ft 439 kts 178°
2026-04-26 01:46 34.37467 -118.50690 29846 ft 437 kts 178°
2026-04-26 01:46 34.34479 -118.50175 29349 ft 431 kts 178°
2026-04-26 01:46 34.31568 -118.49679 28848 ft 418 kts 178°
2026-04-26 01:47 34.28733 -118.49196 28350 ft 407 kts 178°
2026-04-26 01:47 34.25978 -118.48728 27848 ft 396 kts 178°
2026-04-26 01:47 34.23271 -118.48269 27339 ft 386 kts 178°
2026-04-26 01:47 34.20666 -118.47825 26844 ft 380 kts 179°
2026-04-26 01:48 34.18023 -118.47380 26345 ft 379 kts 179°
2026-04-26 01:48 34.15428 -118.46941 25845 ft 378 kts 179°
2026-04-26 01:48 34.12851 -118.46504 25355 ft 374 kts 179°
2026-04-26 01:48 34.10262 -118.46066 24857 ft 373 kts 179°
2026-04-26 01:49 34.07736 -118.45636 24360 ft 370 kts 179°
2026-04-26 01:49 34.05177 -118.45207 23852 ft 367 kts 179°
2026-04-26 01:49 34.02681 -118.44784 23353 ft 364 kts 179°
2026-04-26 01:49 34.00193 -118.44364 22852 ft 362 kts 179°
2026-04-26 01:50 33.97710 -118.43944 22351 ft 361 kts 179°
2026-04-26 01:50 33.95227 -118.43526 21850 ft 359 kts 178°
2026-04-26 01:50 33.92777 -118.43412 21339 ft 345 kts 195°
2026-04-26 01:50 33.90501 -118.44179 20867 ft 339 kts 201°
2026-04-26 01:51 33.88254 -118.44992 20379 ft 338 kts 201°
2026-04-26 01:51 33.85998 -118.45802 19891 ft 337 kts 201°
2026-04-26 01:51 33.84507 -118.46337 19570 ft 336 kts 201°
2026-04-26 01:51 33.81522 -118.47403 18920 ft 334 kts 201°
2026-04-26 01:52 33.79328 -118.48186 18444 ft 332 kts 201°
2026-04-26 01:52 33.77093 -118.48983 17954 ft 331 kts 200°
2026-04-26 01:52 33.74908 -118.49762 17468 ft 330 kts 201°
2026-04-26 01:52 33.72721 -118.50537 16977 ft 328 kts 201°
2026-04-26 01:53 33.70524 -118.51319 16484 ft 326 kts 200°
2026-04-26 01:53 33.68353 -118.52089 16031 ft 323 kts 200°
2026-04-26 01:53 33.66914 -118.52599 15977 ft 319 kts 201°
2026-04-26 01:53 33.64030 -118.53625 15967 ft 323 kts 201°
2026-04-26 01:54 33.61882 -118.54388 15972 ft 325 kts 201°
2026-04-26 01:54 33.59704 -118.55162 15833 ft 327 kts 200°
2026-04-26 01:54 33.57505 -118.55939 15328 ft 325 kts 201°
2026-04-26 01:54 33.55350 -118.56702 14978 ft 318 kts 201°
2026-04-26 01:55 33.53227 -118.57453 14962 ft 317 kts 201°
2026-04-26 01:55 33.51098 -118.58207 14957 ft 321 kts 201°
2026-04-26 01:55 33.48903 -118.58726 14884 ft 330 kts 186°
2026-04-26 01:55 33.46585 -118.58254 14402 ft 342 kts 164°
2026-04-26 01:56 33.45185 -118.57360 14079 ft 347 kts 149°
2026-04-26 01:56 33.43116 -118.54431 13452 ft 355 kts 119°
2026-04-26 01:56 33.42278 -118.51644 12979 ft 352 kts 115°
2026-04-26 01:56 33.41301 -118.48983 12492 ft 346 kts 119°
2026-04-26 01:57 33.40244 -118.46420 12006 ft 342 kts 121°
2026-04-26 01:57 33.39154 -118.43908 11516 ft 339 kts 121°
2026-04-26 01:57 33.38064 -118.41452 11056 ft 335 kts 122°
2026-04-26 01:57 33.37035 -118.38992 10955 ft 321 kts 112°
2026-04-26 01:58 33.36634 -118.36424 10969 ft 313 kts 99°
2026-04-26 01:58 33.36338 -118.33787 10963 ft 317 kts 101°
2026-04-26 01:58 33.36029 -118.31164 10959 ft 318 kts 101°
2026-04-26 01:58 33.35714 -118.28554 10956 ft 317 kts 102°
2026-04-26 01:59 33.35400 -118.26000 10936 ft 301 kts 101°
2026-04-26 01:59 33.35102 -118.23588 10846 ft 294 kts 102°
2026-04-26 01:59 33.34777 -118.21135 10349 ft 297 kts 102°
2026-04-26 01:59 33.34455 -118.18712 9847 ft 297 kts 102°
2026-04-26 02:00 33.34132 -118.16271 9351 ft 297 kts 101°
2026-04-26 02:00 33.33919 -118.14658 9022 ft 297 kts 101°
2026-04-26 02:00 33.33490 -118.11420 8361 ft 296 kts 101°
2026-04-26 02:00 33.33166 -118.08974 7894 ft 292 kts 101°
2026-04-26 02:01 33.32851 -118.06590 7400 ft 290 kts 101°
2026-04-26 02:01 33.32532 -118.04202 6896 ft 288 kts 101°
2026-04-26 02:01 33.32220 -118.01870 6403 ft 285 kts 100°
2026-04-26 02:01 33.31911 -117.99542 5895 ft 283 kts 100°
2026-04-26 02:02 33.31600 -117.97218 5384 ft 281 kts 99°
2026-04-26 02:02 33.31296 -117.94931 4983 ft 275 kts 100°
2026-04-26 02:02 33.31010 -117.92763 4940 ft 255 kts 101°
2026-04-26 02:02 33.30731 -117.90710 4978 ft 257 kts 100°
2026-04-26 02:03 33.30452 -117.88615 4940 ft 249 kts 98°
2026-04-26 02:03 33.30180 -117.86578 4941 ft 247 kts 100°
2026-04-26 02:03 33.29910 -117.84563 4960 ft 249 kts 100°
2026-04-26 02:03 33.29629 -117.82519 4965 ft 248 kts 100°
2026-04-26 02:04 33.29353 -117.80467 4950 ft 250 kts 100°
2026-04-26 02:04 33.29079 -117.78426 4954 ft 250 kts 100°
2026-04-26 02:04 33.28798 -117.76357 4941 ft 250 kts 99°
2026-04-26 02:04 33.28520 -117.74320 4948 ft 249 kts 100°
2026-04-26 02:05 33.27891 -117.72417 4962 ft 246 kts 121°
2026-04-26 02:05 33.27052 -117.70640 4931 ft 247 kts 121°
2026-04-26 02:05 33.26213 -117.68862 4964 ft 247 kts 121°
2026-04-26 02:05 33.25360 -117.67049 4945 ft 246 kts 122°
2026-04-26 02:06 33.24520 -117.65266 4945 ft 247 kts 121°
2026-04-26 02:06 33.23680 -117.63492 4959 ft 247 kts 121°
2026-04-26 02:06 33.22837 -117.61689 4949 ft 246 kts 120°
2026-04-26 02:06 33.22000 -117.59910 4959 ft 246 kts 120°
2026-04-26 02:07 33.21175 -117.58147 4959 ft 244 kts 121°
2026-04-26 02:07 33.20348 -117.56382 4960 ft 245 kts 121°
2026-04-26 02:07 33.19505 -117.54578 4968 ft 247 kts 121°
2026-04-26 02:07 33.18671 -117.52803 4961 ft 246 kts 121°
2026-04-26 02:08 33.17839 -117.51017 4967 ft 246 kts 121°
2026-04-26 02:08 33.16996 -117.49219 4971 ft 248 kts 121°
2026-04-26 02:08 33.16146 -117.47416 4973 ft 248 kts 121°
2026-04-26 02:08 33.15308 -117.45628 4972 ft 248 kts 119°
2026-04-26 02:09 33.14917 -117.43661 4971 ft 250 kts 87°
2026-04-26 02:09 33.15420 -117.41673 4986 ft 249 kts 61°
2026-04-26 02:09 33.16233 -117.39825 4975 ft 250 kts 61°
2026-04-26 02:09 33.17043 -117.38003 4975 ft 249 kts 61°
2026-04-26 02:10 33.17867 -117.36159 4975 ft 249 kts 61°
2026-04-26 02:10 33.18682 -117.34341 4974 ft 250 kts 61°
2026-04-26 02:10 33.19493 -117.32526 4972 ft 250 kts 61°
2026-04-26 02:10 33.20318 -117.30685 4972 ft 249 kts 61°
2026-04-26 02:11 33.21240 -117.28967 4959 ft 247 kts 46°
2026-04-26 02:11 33.22410 -117.27473 4976 ft 248 kts 45°
2026-04-26 02:11 33.23597 -117.25967 4970 ft 248 kts 45°
2026-04-26 02:11 33.24799 -117.24532 4961 ft 246 kts 37°
2026-04-26 02:12 33.26141 -117.23270 4969 ft 246 kts 36°
2026-04-26 02:12 33.27501 -117.21987 4966 ft 246 kts 36°
2026-04-26 02:12 33.28838 -117.20737 4971 ft 245 kts 36°
2026-04-26 02:12 33.30209 -117.19498 4962 ft 245 kts 29°
2026-04-26 02:13 33.31744 -117.18615 4980 ft 244 kts 23°
2026-04-26 02:13 33.33275 -117.17782 4969 ft 244 kts 22°
2026-04-26 02:13 33.34825 -117.16937 4965 ft 244 kts 21°
2026-04-26 02:13 33.36440 -117.16333 4974 ft 243 kts 14°
2026-04-26 02:14 33.38070 -117.15782 4962 ft 243 kts 13°
2026-04-26 02:14 33.39701 -117.15203 4951 ft 244 kts 15°
2026-04-26 02:14 33.41309 -117.14601 4959 ft 237 kts 14°
2026-04-26 02:14 33.42850 -117.14022 4938 ft 220 kts 15°
2026-04-26 02:15 33.43814 -117.13652 4948 ft 217 kts 15°
2026-04-26 02:15 33.45741 -117.12910 4953 ft 220 kts 16°
2026-04-26 02:15 33.47022 -117.11925 4955 ft 225 kts 47°
2026-04-26 02:15 33.48180 -117.10681 4948 ft 219 kts 23°
2026-04-26 02:16 33.49593 -117.10384 4667 ft 208 kts 349°
2026-04-26 02:16 33.50865 -117.11102 4185 ft 204 kts 313°
2026-04-26 02:16 33.51508 -117.12569 3699 ft 202 kts 277°
2026-04-26 02:16 33.51275 -117.14200 3229 ft 202 kts 244°
2026-04-26 02:17 33.50517 -117.15565 3051 ft 188 kts 229°
2026-04-26 02:17 33.49606 -117.16567 3028 ft 173 kts 220°
2026-04-26 02:17 33.48617 -117.17442 3068 ft 180 kts 217°
2026-04-26 02:17 33.47556 -117.18289 3030 ft 182 kts 216°
2026-04-26 02:18 33.46490 -117.19104 3059 ft 183 kts 215°
2026-04-26 02:18 33.45406 -117.19915 3048 ft 183 kts 214°
2026-04-26 02:18 33.44329 -117.20712 3036 ft 183 kts 214°
2026-04-26 02:18 33.43242 -117.21511 3070 ft 182 kts 214°
2026-04-26 02:19 33.42163 -117.22347 2859 ft 184 kts 220°
2026-04-26 02:19 33.41196 -117.23285 2600 ft 173 kts 221°
2026-04-26 02:19 33.40294 -117.24155 2422 ft 154 kts 221°
2026-04-26 02:19 33.39481 -117.24943 2476 ft 151 kts 221°
2026-04-26 02:20 33.38649 -117.25746 2469 ft 155 kts 221°
2026-04-26 02:20 33.37830 -117.26592 2462 ft 155 kts 227°
2026-04-26 02:20 33.37069 -117.27531 2385 ft 157 kts 229°
2026-04-26 02:20 33.36571 -117.28160 2386 ft 153 kts 228°
2026-04-26 02:21 33.35504 -117.29335 2044 ft 152 kts 222°
2026-04-26 02:21 33.34738 -117.30160 1645 ft 145 kts 225°
2026-04-26 02:21 33.34012 -117.30999 1193 ft 145 kts 226°
2026-04-26 02:21 33.33315 -117.31825 886 ft 138 kts 227°
2026-04-26 02:22 33.32619 -117.32626 646 ft 137 kts 225°
2026-04-26 02:22 33.31943 -117.33401 473 ft 134 kts 226°
2026-04-26 02:22 33.31274 -117.34187 262 ft 133 kts 226°
2026-04-26 02:22 33.30834 -117.34691 126 ft 130 kts 226°
2026-04-26 02:23 33.30199 -117.35432 72 ft 49 kts 224°
2026-04-26 02:23 33.30040 -117.35620 70 ft 46 kts 224°
2026-04-26 02:23 33.29811 -117.35877 68 ft 22 kts 216°
2026-04-26 02:23 33.29700 -117.35847 68 ft 14 kts 125°
2026-04-26 02:24 33.29705 -117.35741 68 ft 13 kts 51°
2026-04-26 02:24 33.29770 -117.35664 68 ft 12 kts 43°
2026-04-26 02:24 33.29819 -117.35609 68 ft 16 kts 44°
2026-04-26 02:24 33.29948 -117.35458 71 ft 18 kts 45°
2026-04-26 02:25 33.30036 -117.35356 72 ft 17 kts 43°
2026-04-26 02:25 33.30117 -117.35261 73 ft 15 kts 44°
2026-04-26 02:25 33.30189 -117.35181 75 ft 12 kts 42°
2026-04-26 02:25 33.30260 -117.35100 76 ft 14 kts 44°
2026-04-26 02:26 33.30298 -117.35014 78 ft 10 kts 123°
2026-04-26 02:26 33.30252 -117.34953 79 ft 8 kts 134°
2026-04-26 02:26 33.30223 -117.34917 80 ft 4 kts 134°
2026-04-26 02:26 33.30219 -117.34892 80 ft 2 kts 67°
2026-04-26 02:27 33.30227 -117.34883 80 ft 0 kts 41°